Miscellaneous Local Product
Issued by NWS Hastings, NE

Home | Current Version | Previous Version | Graphics & Text | Print | Product List | Glossary On
Versions: 1 2 3 4 5 6 7 8 9 10 11 12 13 14 15 16 17 18 19 20 21 22 23 24 25 26 27 28 29 30 31 32 33 34 35 36 37 38 39 40 41 42 43 44 45 46 47 48 49 50
000
AXUS43 KGID 270802
MISGRI

GID CWA HOURLY WEATHER ROUNDUP
NATIONAL WEATHER SERVICE HASTINGS NE
300 AM CDT MON MAR 27 2017

NOTE: "FAIR" INDICATES FEW OR NO CLOUDS BELOW 12,000 FEET WITH NO
SIGNIFICANT WEATHER AND/OR OBSTRUCTIONS TO VISIBILITY.

...SOUTH CENTRAL NEBRASKA...

CITY           SKY/WX    TMP DP  RH WIND       PRES   REMARKS
GRAND ISLAND   CLOUDY    44  44 100 N5        29.95R FOG
HASTINGS       CLOUDY    45  44  97 N6        29.95S FOG
KEARNEY        CLOUDY    45  41  87 N5        29.94F
ORD            MOCLDY    42  39  89 N5        29.93F
YORK           CLOUDY    45  45 100 N7        29.94R FOG
AURORA         CLOUDY    44  43  99 N7        29.94R FOG
LEXINGTON      CLOUDY    43  41  93 CALM      29.92F
HOLDREGE       PTCLDY    40  39  95 CALM      29.93S FOG
HEBRON         CLOUDY    44  43  95 CALM      29.93R

...NEBRASKA PANHANDLE...

CITY           SKY/WX    TMP DP  RH WIND       PRES   REMARKS
CHADRON        CLOUDY    32  30  92 W5        29.93S WCI  27
ALLIANCE       CLEAR     25  24  96 W8        29.92F WCI  16
SCOTTSBLUFF    CLEAR     28  25  88 N3        29.94F
SIDNEY         CLEAR     28  26  92 NW8       29.95S WCI  20

...WESTERN AND NORTH CENTRAL NEBRASKA...

CITY           SKY/WX    TMP DP  RH WIND       PRES   REMARKS
VALENTINE      CLEAR     32  29  88 NW5       29.94R WCI  27
AINSWORTH      FOG       34  34 100 CALM      29.94R VSB 1/2
ONEILL         CLOUDY    42  40  93 CALM      29.95F
BROKEN BOW     CLEAR     38  32  79 N3        29.91F HAZE
IMPERIAL       CLEAR     37  35  92 SW3       29.92F
NORTH PLATTE   PTCLDY    38  37  97 CALM      29.92S
MCCOOK         CLEAR     37  36  96 W7        29.93R WCI  32

...EASTERN NEBRASKA...

CITY           SKY/WX    TMP DP  RH WIND       PRES   REMARKS
NORFOLK        CLOUDY    42  40  92 CALM      29.95S
SO SIOUX CITY  CLOUDY    44  40  85 N6        29.96R
TEKAMAH        CLOUDY    44  41  89 N7        29.94R
COLUMBUS       CLOUDY    43  39  87 N6        29.96R
ALBION         CLOUDY    45  42  89 N5        29.96S
OMAHA EPPLEY   CLOUDY    45  41  86 NW5       29.93R
OFFUTT AFB     CLOUDY    46  42  84 CALM      29.93R
MILLARD        CLOUDY    48  44  84 N3        29.94R
LINCOLN        CLOUDY    45  43  93 N9        29.94S
NEBRASKA CITY  CLOUDY    45  44  95 NE3       29.93F
BEATRICE       DRIZZLE   46  44  95 NE6       29.92S
FALLS CITY     CLOUDY    46  44  93 NE7       29.88F

...NORTHERN KANSAS...

CITY           SKY/WX    TMP DP  RH WIND       PRES   REMARKS
GOODLAND       CLEAR     36  35  96 W12       29.93S WCI  28
HILL CITY      CLEAR     41  40  96 E3        29.94R
NORTON         SUNNY     36  34  93 W3        29.92R FOG
PHILLIPSBURG   PTCLDY    45  45 100 CALM      29.93F FOG
HAYS             N/A     46  44  93 N6        29.94R
RUSSELL        CLOUDY    46  44  93 N8        29.91R
CONCORDIA      LGT RAIN  45  45 100 N5        29.92S FOG
SALINA         LGT RAIN  48  47  96 N9        29.90S FOG
TOPEKA         CLOUDY    47  47 100 N6        29.85R



USA.gov is the U.S. government's official web portal to all federal, state and local government web resources and services.